TimeEST,TemperatureF,Dew PointF,Humidity,Sea Level PressureIn,VisibilityMPH,Wind Direction,Wind SpeedMPH,Gust SpeedMPH,PrecipitationIn,Events,Conditions,WindDirDegrees,DateUTC
12:51 AM,21.9,9.0,58,29.96,10.0,Calm,Calm,-,N/A,,Overcast,0,2013-02-05 05:51:00
1:51 AM,21.0,10.9,65,29.96,10.0,NE,5.8,-,N/A,,Overcast,40,2013-02-05 06:51:00
2:51 AM,21.2,10.4,63,29.94,10.0,NNE,5.8,-,N/A,,Overcast,20,2013-02-05 07:51:00
3:51 AM,21.2,10.4,63,29.94,10.0,Calm,Calm,-,N/A,,Overcast,0,2013-02-05 08:51:00
4:51 AM,21.9,10.9,63,29.96,10.0,Calm,Calm,-,N/A,,Overcast,0,2013-02-05 09:51:00
5:51 AM,21.0,10.9,65,29.96,10.0,Calm,Calm,-,N/A,,Overcast,0,2013-02-05 10:51:00
6:51 AM,21.9,10.9,63,29.98,10.0,Calm,Calm,-,N/A,,Overcast,0,2013-02-05 11:51:00
7:51 AM,21.9,12.0,66,29.99,10.0,North,3.5,-,N/A,,Overcast,350,2013-02-05 12:51:00
8:51 AM,23.0,10.9,60,30.00,10.0,NNE,4.6,-,N/A,,Overcast,30,2013-02-05 13:51:00
9:51 AM,25.0,10.9,55,30.01,10.0,NNE,3.5,-,N/A,,Overcast,30,2013-02-05 14:51:00
10:51 AM,26.1,10.9,53,30.01,10.0,North,3.5,-,0.00,,Overcast,360,2013-02-05 15:51:00
11:51 AM,26.6,10.4,51,29.98,10.0,Calm,Calm,-,N/A,,Overcast,0,2013-02-05 16:51:00
12:51 PM,27.0,12.0,53,29.96,10.0,Variable,3.5,-,N/A,,Overcast,0,2013-02-05 17:51:00
1:51 PM,28.0,12.9,53,29.95,10.0,SE,3.5,-,N/A,,Overcast,140,2013-02-05 18:51:00
2:51 PM,28.0,15.1,58,29.94,10.0,SSE,4.6,-,N/A,,Mostly Cloudy,160,2013-02-05 19:51:00
3:51 PM,28.9,16.0,58,29.93,10.0,Calm,Calm,-,N/A,,Overcast,0,2013-02-05 20:51:00
4:51 PM,28.0,16.0,61,29.92,10.0,SSE,3.5,-,N/A,,Overcast,150,2013-02-05 21:51:00
5:51 PM,28.0,17.1,63,29.93,8.0,South,5.8,-,N/A,,Overcast,170,2013-02-05 22:51:00
6:40 PM,26.6,21.2,80,29.92,2.5,SSE,5.8,-,0.00,Snow,Light Snow,160,2013-02-05 23:40:00
6:51 PM,26.1,21.0,81,29.94,2.5,South,5.8,-,0.00,Snow,Light Snow,170,2013-02-05 23:51:00
7:11 PM,24.8,21.2,86,29.93,1.8,SSE,3.5,-,0.01,Snow,Light Snow,160,2013-02-06 00:11:00
7:40 PM,24.8,21.2,86,29.93,2.0,SSE,3.5,-,0.01,Snow,Light Snow,150,2013-02-06 00:40:00
7:51 PM,25.0,21.9,88,29.94,2.0,SE,3.5,-,0.01,Snow,Light Snow,140,2013-02-06 00:51:00
8:02 PM,24.8,21.2,86,29.93,7.0,Calm,Calm,-,0.00,Snow,Light Snow,0,2013-02-06 01:02:00
8:45 PM,24.8,21.2,86,29.93,3.0,Calm,Calm,-,0.00,Snow,Light Snow,0,2013-02-06 01:45:00
8:51 PM,25.0,21.9,88,29.94,3.0,Calm,Calm,-,0.00,Snow,Light Snow,0,2013-02-06 01:51:00
9:51 PM,26.1,21.9,84,29.94,6.0,Calm,Calm,-,0.00,Snow,Light Snow,0,2013-02-06 02:51:00
10:51 PM,26.1,21.0,81,29.93,7.0,Calm,Calm,-,0.00,Snow,Light Snow,0,2013-02-06 03:51:00
11:06 PM,26.6,21.2,80,29.92,7.0,Calm,Calm,-,0.00,Snow,Light Snow,0,2013-02-06 04:06:00
11:51 PM,26.1,21.9,84,29.94,5.0,Calm,Calm,-,0.00,Snow,Light Snow,0,2013-02-06 04:51:00